#timestamp,LO_Frequency,Hit,StdDev 
1680469215.1,286046999.9,N
1680469235.8,286046999.8,N
1680469255.7,286047000.0,N
1680469275.5,286047000.5,N
1680469295.4,286046998.6,N
1680469315.2,286046999.8,N
1680469335.0,286047000.0,N
1680469335.9,286047000.0,N
1680469355.8,286047000.5,N
1680469375.6,286047000.2,N
1680469395.4,286046999.7,N
1680469415.3,286047000.0,N
1680469435.1,286047000.0,N
1680469455.9,286047002.6,N
1680469475.7,286047001.7,N
1680469495.5,286047001.6,N
1680469515.4,286047002.5,N
1680469535.2,286047003.9,N
1680469555.0,286047003.2,N
1680469555.9,286047003.2,N
1680469575.8,286047002.2,N
1680469595.6,286047004.2,N
1680469615.5,286047004.3,N
1680469635.3,286047002.1,N
1680469655.1,286046999.9,N
1680469675.9,286047002.2,N
1680469695.7,286047001.4,N
1680469715.5,286047003.8,N
1680469735.4,286047005.9,Y
1680469755.2,286047001.7,P
1680469775.1,286047002.6,P
1680469776.0,286047002.6,P
1680469795.8,286047001.3,N
1680469815.6,286047002.5,Y
1680469835.5,286047000.1,P
1680469855.3,286046998.1,N
1680469875.2,286046999.3,N
1680469895.9,286047001.1,N
1680469915.7,286046999.9,N
1680469935.6,286047000.6,N
1680469955.4,286047000.8,N
1680469975.2,286047001.0,N
1680469995.1,286047001.2,N
1680469996.0,286047001.2,N
1680470015.8,286046998.4,N
1680470035.7,286046996.8,N
1680470055.5,286046999.4,N
1680470075.3,286046997.0,N
1680470095.2,286046997.1,N
1680470115.9,286046999.5,N
1680470135.7,286046996.5,N
1680470155.6,286046996.5,N
1680470175.4,286046996.8,N
1680470195.2,286046997.4,N
1680470215.1,286046996.7,N
1680470216.0,286046996.7,N
1680470235.8,286046999.5,N
1680470255.7,286046998.2,N
1680470275.5,286047001.1,N
1680470295.3,286046998.5,N
1680470315.2,286047000.0,N
1680470335.0,286047000.5,N
1680470335.9,286047000.5,N
1680470355.8,286046998.9,N
1680470375.6,286046999.4,N
1680470395.4,286046999.4,N
1680470415.3,286046996.7,N
1680470435.1,286046997.1,N
1680470455.8,286046999.5,N
1680470475.7,286046998.6,N
1680470495.5,286047000.7,N
1680470515.3,286047000.7,N
1680470535.2,286046999.4,N
1680470555.0,286046999.2,N
1680470555.9,286046999.2,N
1680470575.8,286047000.7,N
1680470595.6,286046998.1,N
1680470615.4,286047000.6,N
1680470635.3,286047000.3,N
1680470655.1,286047000.9,N
1680470675.8,286046998.4,N
1680470695.7,286046998.8,N
1680470715.5,286046999.6,N
1680470735.4,286046997.8,N
1680470755.2,286046999.5,N
1680470775.0,286046999.3,N
1680470775.9,286046999.3,N
1680470795.8,286046996.8,N
1680470815.6,286046997.2,N
1680470835.4,286046997.7,N
1680470855.3,286046995.3,Y
1680470875.1,286046996.8,P
1680470895.9,286046997.0,N
1680470915.7,286046995.4,P
1680470935.5,286046998.0,N
1680470955.4,286046999.2,N
1680470975.2,286046997.0,N
1680470995.1,286046995.1,Y
1680470996.0,286046995.1,P
1680471015.8,286046997.7,N
1680471035.6,286046995.6,P
1680471055.5,286046995.6,Y
1680471075.3,286046999.3,P
1680471095.1,286046997.1,N
1680471115.9,286046997.5,N
1680471135.7,286046995.0,Y
1680471155.6,286046998.3,P
1680471175.4,286047000.0,N
1680471195.2,286047002.6,N
1680471215.1,286047002.4,N
1680471216.0,286047002.4,N
1680471235.8,286047002.6,N
1680471255.7,286047000.6,N
1680471275.5,286047002.5,N
1680471295.3,286047000.5,N
1680471315.2,286047000.7,N
1680471335.9,286047001.1,N
1680471355.7,286047000.1,N
1680471375.6,286046998.5,N
1680471395.4,286046998.4,N
1680471415.2,286047000.2,N
1680471435.1,286047000.0,N
1680471436.0,286047000.0,N
1680471455.8,286046998.7,N
1680471475.7,286046996.7,N
1680471495.5,286046997.1,N
1680471515.3,286046996.6,N
1680471535.2,286046995.8,N
1680471555.0,286046995.8,N
1680471555.9,286046995.8,N
1680471575.7,286046995.6,N
1680471595.6,286046993.5,N
1680471615.4,286046992.0,Y
1680471635.3,286046994.6,P
1680471655.1,286046994.8,N
1680471675.8,286046994.2,N
1680471695.7,286046995.6,N
1680471715.5,286046998.0,N
1680471735.3,286046999.6,N
1680471755.2,286046999.2,N
1680471775.0,286046999.5,N
1680471775.9,286046999.5,N
1680471795.8,286046998.7,N
1680471815.6,286046999.6,N
1680471835.4,286046998.9,N
1680471855.3,286046998.7,N
1680471875.1,286046998.7,N
1680471895.8,286046998.3,N
1680471915.7,286046998.9,N
1680471935.5,286046999.3,N
1680471955.4,286046999.3,N
1680471975.2,286046999.1,N
1680471995.0,286046996.6,N
1680471995.9,286046996.6,N
1680472015.8,286046997.5,N
1680472035.6,286046997.9,N
1680472055.4,286046997.6,N
1680472075.3,286046995.8,N
1680472095.1,286046993.3,Y
1680472115.9,286046999.1,P
1680472135.7,286046997.7,P
1680472155.5,286046999.0,N
1680472175.4,286046997.2,Y
1680472195.2,286046999.5,P
1680472215.0,286046997.3,P
1680472216.0,286046997.3,P
1680472235.8,286046998.3,N
1680472255.6,286046998.3,N
1680472275.5,286047000.8,N
1680472295.3,286046999.0,N
1680472315.1,286046998.2,N
1680472335.9,286046999.1,N
1680472355.7,286046999.3,N
1680472375.5,286046999.0,N
1680472395.4,286046999.7,N
1680472415.2,286047002.8,N
1680472435.1,286047002.5,N
1680472436.0,286047002.5,N
1680472455.8,286047001.8,N
1680472475.6,286047001.9,N
1680472495.5,286047002.6,N
1680472515.3,286047004.0,N
1680472535.2,286047001.3,N
1680472555.9,286047001.6,N
1680472575.7,286047003.7,N
1680472595.6,286047003.5,N
1680472615.4,286047003.0,N
1680472635.3,286047005.2,N
1680472655.1,286047007.0,Y
1680472656.0,286047007.0,P
1680472675.8,286047005.0,N
1680472695.7,286047005.3,N
1680472715.5,286047004.5,N
1680472735.3,286047006.4,Y
1680472755.2,286047004.1,P
1680472775.0,286047003.1,P
1680472775.9,286047003.1,P
1680472795.8,286047004.1,Y
